Location: Unspecified
(40.7945°N, 111.1337°W)
Time: 16:33:04
(UTC-06:00)

Vanguard 1 - Pass Details

Date: 18 June 2019
Orbit: 653 x 3830 km, 34.3° (Epoch: 15 July)

Event Time Altitude Azimuth Distance (km) Brightness Sun altitude
Exits shadow 02:48:44 22° 172° (S) 4,877 13.1 -23.0°
Maximum altitude 02:53:44 25° 150° (SSE) 4,255 12.9 -22.6°
Drops below altitude 10° 03:03:22 10° 101° (E) 4,389 13.5 -21.9°
Sets 03:06:57 0° 88° (E) 4,957 14.0 -21.6°
